Location: Calvatone
(45.1167°N, 10.4333°E)
Time: 16:17:29
(UTC+00:00)

Meteor 1-11 - Pass Details

Date: 28 January 2023
Orbit: 839 x 888 km, 81.2° (Epoch: 31 March)

Event Time Altitude Azimuth Distance (km) Brightness Sun altitude
Rises 18:34:26 0° 192° (SSW) 3,477 7.6 -23.8°
Reaches altitude 10° 18:36:52 10° 193° (SSW) 2,544 6.8 -24.2°
Maximum altitude 18:42:41 81° 281° (W) 905 4.3 -25.2°
Drops below altitude 10° 18:48:32 10° 9° (N) 2,557 6.6 -26.2°
Sets 18:50:59 0° 10° (N) 3,496 7.3 -26.7°
